Time,TemperatureF,DewpointF,PressureIn,WindDirection,WindDirectionDegrees,WindSpeedMPH,WindSpeedGustMPH,Humidity,HourlyPrecipIn,Conditions,Clouds,dailyrainin,SoftwareType,DateUTC
2013-03-03 00:00:00,24.4,19.8,29.89,North,0,8.7,12.5,82,0.00,,,0.00,WUHU21623XXSP,2013-03-03 05:00:00,
2013-03-03 00:05:00,24.4,19.5,29.89,NNW,337,5.6,12.5,81,0.00,,,0.00,WUHU21623XXSP,2013-03-03 05:05:00,
2013-03-03 00:10:00,24.4,19.5,29.89,NW,315,9.8,14.3,81,0.00,,,0.00,WUHU21623XXSP,2013-03-03 05:10:00,
2013-03-03 00:15:00,24.3,19.0,29.88,NNW,337,8.7,15.7,80,0.00,,,0.00,WUHU21623XXSP,2013-03-03 05:15:00,
2013-03-03 00:20:00,24.1,18.9,29.88,NNW,337,13.2,15.7,80,0.00,,,0.00,WUHU21623XXSP,2013-03-03 05:20:00,
2013-03-03 00:25:00,24.1,18.9,29.88,NW,315,10.7,15.4,80,0.00,,,0.00,WUHU21623XXSP,2013-03-03 05:25:00,
2013-03-03 00:30:00,24.1,18.9,29.88,North,0,11.2,15.4,80,0.00,,,0.00,WUHU21623XXSP,2013-03-03 05:30:00,
2013-03-03 00:35:00,24.1,18.9,29.88,NNW,337,8.1,15.2,80,0.00,,,0.00,WUHU21623XXSP,2013-03-03 05:35:00,
2013-03-03 00:40:00,23.9,18.7,29.88,NNW,337,13.2,14.8,80,0.00,,,0.00,WUHU21623XXSP,2013-03-03 05:40:00,
2013-03-03 00:45:00,23.9,18.7,29.88,NNW,337,8.9,16.6,80,0.00,,,0.00,WUHU21623XXSP,2013-03-03 05:45:00,
2013-03-03 00:50:00,23.9,18.7,29.88,North,0,11.2,16.6,80,0.00,,,0.00,WUHU21623XXSP,2013-03-03 05:50:00,
2013-03-03 00:55:00,23.9,18.7,29.88,NNW,337,5.4,14.5,80,0.00,,,0.00,WUHU21623XXSP,2013-03-03 05:55:00,
2013-03-03 01:00:00,23.7,18.5,29.88,NNW,337,4.5,14.5,80,0.00,,,0.00,WUHU21623XXSP,2013-03-03 06:00:00,
2013-03-03 01:06:00,23.7,18.5,29.88,NNW,337,4.5,14.3,80,0.00,,,0.00,WUHU21623XXSP,2013-03-03 06:06:00,
2013-03-03 01:11:00,23.5,18.6,29.88,NNW,337,6.9,11.6,81,0.00,,,0.00,WUHU21623XXSP,2013-03-03 06:11:00,
2013-03-03 01:16:00,23.5,18.9,29.89,NNW,337,9.8,15.9,82,0.00,,,0.00,WUHU21623XXSP,2013-03-03 06:16:00,
2013-03-03 01:21:00,23.4,18.7,29.88,NW,315,5.8,15.9,82,0.00,,,0.00,WUHU21623XXSP,2013-03-03 06:21:00,
2013-03-03 01:26:00,23.4,18.9,29.88,NW,315,8.5,13.9,83,0.00,,,0.00,WUHU21623XXSP,2013-03-03 06:26:00,
2013-03-03 01:31:00,23.2,19.0,29.88,North,0,10.3,13.9,84,0.00,,,0.00,WUHU21623XXSP,2013-03-03 06:31:00,
2013-03-03 01:36:00,23.0,18.9,29.88,NNW,337,8.7,13.2,84,0.00,,,0.00,WUHU21623XXSP,2013-03-03 06:36:00,
2013-03-03 01:41:00,22.8,18.7,29.88,North,0,0.0,14.3,84,0.00,,,0.00,WUHU21623XXSP,2013-03-03 06:41:00,
2013-03-03 01:46:00,22.8,18.9,29.88,NNW,337,6.5,14.3,85,0.00,,,0.00,WUHU21623XXSP,2013-03-03 06:46:00,
2013-03-03 01:51:00,22.8,18.7,29.88,NNW,337,4.5,9.6,84,0.00,,,0.00,WUHU21623XXSP,2013-03-03 06:51:00,
2013-03-03 01:56:00,22.8,18.9,29.88,NNW,337,4.5,9.4,85,0.00,,,0.00,WUHU21623XXSP,2013-03-03 06:56:00,
2013-03-03 02:01:00,22.6,18.8,29.88,NW,315,3.8,8.1,85,0.00,,,0.00,WUHU21623XXSP,2013-03-03 07:01:00,
2013-03-03 02:10:00,22.6,18.8,29.88,NW,315,3.8,3.8,85,0.00,,,0.00,WUHU21623XXSP,2013-03-03 07:10:00,
2013-03-03 02:15:00,22.5,18.9,29.88,NW,315,6.0,8.3,86,0.00,,,0.00,WUHU21623XXSP,2013-03-03 07:15:00,
2013-03-03 02:20:00,22.5,18.9,29.87,NNW,337,8.3,13.6,86,0.00,,,0.00,WUHU21623XXSP,2013-03-03 07:20:00,
2013-03-03 02:25:00,22.5,19.1,29.87,NW,315,7.2,13.6,87,0.00,,,0.00,WUHU21623XXSP,2013-03-03 07:25:00,
2013-03-03 02:30:00,22.5,19.1,29.87,NW,315,5.6,12.3,87,0.00,,,0.00,WUHU21623XXSP,2013-03-03 07:30:00,
2013-03-03 02:35:00,22.5,19.1,29.87,NW,315,7.8,8.9,87,0.00,,,0.00,WUHU21623XXSP,2013-03-03 07:35:00,
2013-03-03 02:40:00,22.3,19.2,29.87,NW,315,9.4,13.6,88,0.00,,,0.00,WUHU21623XXSP,2013-03-03 07:40:00,
2013-03-03 02:45:00,22.3,19.2,29.87,NNW,337,8.7,13.6,88,0.00,,,0.00,WUHU21623XXSP,2013-03-03 07:45:00,
2013-03-03 02:50:00,22.3,19.2,29.87,NW,315,10.7,13.4,88,0.00,,,0.00,WUHU21623XXSP,2013-03-03 07:50:00,
2013-03-03 02:55:00,22.1,19.2,29.87,NW,315,9.2,13.0,88,0.00,,,0.00,WUHU21623XXSP,2013-03-03 07:55:00,
2013-03-03 03:00:00,22.1,19.0,29.87,NNW,337,12.5,14.5,88,0.00,,,0.00,WUHU21623XXSP,2013-03-03 08:00:00,
2013-03-03 03:05:00,22.1,19.0,29.87,NNW,337,12.5,14.5,88,0.00,,,0.00,WUHU21623XXSP,2013-03-03 08:05:00,
2013-03-03 03:10:00,22.1,19.0,29.86,NNW,337,9.8,9.8,88,0.00,,,0.00,WUHU21623XXSP,2013-03-03 08:10:00,
2013-03-03 03:15:00,21.9,18.9,29.86,North,0,5.4,13.2,88,0.00,,,0.00,WUHU21623XXSP,2013-03-03 08:15:00,
2013-03-03 03:20:00,21.9,18.9,29.86,NW,315,6.7,13.2,88,0.00,,,0.00,WUHU21623XXSP,2013-03-03 08:20:00,
2013-03-03 03:25:00,21.9,18.9,29.86,NNW,337,11.9,13.2,88,0.00,,,0.00,WUHU21623XXSP,2013-03-03 08:25:00,
2013-03-03 03:30:00,21.9,18.9,29.86,NW,315,9.4,13.0,88,0.00,,,0.00,WUHU21623XXSP,2013-03-03 08:30:00,
2013-03-03 03:35:00,21.9,18.9,29.86,NW,315,6.0,12.8,88,0.00,,,0.00,WUHU21623XXSP,2013-03-03 08:35:00,
2013-03-03 03:40:00,21.9,19.1,29.86,NW,315,4.3,12.8,89,0.00,,,0.00,WUHU21623XXSP,2013-03-03 08:40:00,
2013-03-03 03:45:00,21.9,19.1,29.86,NW,315,5.4,12.8,89,0.00,,,0.00,WUHU21623XXSP,2013-03-03 08:45:00,
2013-03-03 03:50:00,21.9,19.1,29.86,NW,315,6.7,11.4,89,0.00,,,0.00,WUHU21623XXSP,2013-03-03 08:50:00,
2013-03-03 03:55:00,21.9,19.1,29.86,NW,315,10.1,11.4,89,0.00,,,0.00,WUHU21623XXSP,2013-03-03 08:55:00,
2013-03-03 04:00:00,21.7,18.9,29.86,NW,315,7.8,10.3,89,0.00,,,0.00,WUHU21623XXSP,2013-03-03 09:00:00,
2013-03-03 04:05:00,21.7,18.9,29.86,NW,315,7.8,9.6,89,0.00,,,0.00,WUHU21623XXSP,2013-03-03 09:05:00,
2013-03-03 04:10:00,21.7,18.9,29.86,NW,315,8.7,9.6,89,0.00,,,0.00,WUHU21623XXSP,2013-03-03 09:10:00,
2013-03-03 04:15:00,21.6,18.8,29.87,NW,315,9.6,10.5,89,0.00,,,0.00,WUHU21623XXSP,2013-03-03 09:15:00,
2013-03-03 04:20:00,21.6,18.8,29.87,NW,315,9.4,10.5,89,0.00,,,0.00,WUHU21623XXSP,2013-03-03 09:20:00,
2013-03-03 04:25:00,21.6,18.8,29.87,NNW,337,6.0,12.8,89,0.00,,,0.00,WUHU21623XXSP,2013-03-03 09:25:00,
2013-03-03 04:30:00,21.6,18.9,29.87,NW,315,5.6,12.8,90,0.00,,,0.00,WUHU21623XXSP,2013-03-03 09:30:00,
2013-03-03 04:35:00,21.4,18.9,29.87,NW,315,3.6,9.8,90,0.00,,,0.00,WUHU21623XXSP,2013-03-03 09:35:00,
2013-03-03 04:40:00,21.4,18.9,29.87,NW,315,4.9,9.8,90,0.00,,,0.00,WUHU21623XXSP,2013-03-03 09:40:00,
2013-03-03 04:45:00,21.4,18.9,29.87,NW,315,6.9,9.8,90,0.00,,,0.00,WUHU21623XXSP,2013-03-03 09:45:00,
2013-03-03 04:50:00,21.2,18.7,29.87,NW,315,9.6,12.1,90,0.00,,,0.00,WUHU21623XXSP,2013-03-03 09:50:00,
2013-03-03 04:55:00,21.0,18.5,29.86,NNW,337,7.2,12.1,90,0.00,,,0.00,WUHU21623XXSP,2013-03-03 09:55:00,
2013-03-03 05:00:00,21.0,18.2,29.87,NW,315,9.2,11.4,89,0.00,,,0.00,WUHU21623XXSP,2013-03-03 10:00:00,
2013-03-03 05:05:00,21.0,18.2,29.87,NNW,337,4.3,11.4,89,0.00,,,0.00,WUHU21623XXSP,2013-03-03 10:05:00,
2013-03-03 05:10:00,21.0,18.2,29.87,NW,315,8.3,12.1,89,0.00,,,0.00,WUHU21623XXSP,2013-03-03 10:10:00,
2013-03-03 05:15:00,21.0,18.5,29.87,NNW,337,6.7,12.1,90,0.00,,,0.00,WUHU21623XXSP,2013-03-03 10:15:00,
2013-03-03 05:20:00,21.0,18.5,29.87,NNW,337,10.1,12.8,90,0.00,,,0.00,WUHU21623XXSP,2013-03-03 10:20:00,
2013-03-03 05:25:00,21.0,18.5,29.87,NNW,337,9.2,12.8,90,0.00,,,0.00,WUHU21623XXSP,2013-03-03 10:25:00,
2013-03-03 05:31:00,21.0,18.5,29.87,NNW,337,6.0,9.2,90,0.00,,,0.00,WUHU21623XXSP,2013-03-03 10:31:00,
2013-03-03 05:35:00,20.8,18.3,29.87,NNW,337,8.1,8.9,90,0.00,,,0.00,WUHU21623XXSP,2013-03-03 10:35:00,
2013-03-03 05:41:00,20.8,18.3,29.87,NW,315,8.1,14.1,90,0.00,,,0.00,WUHU21623XXSP,2013-03-03 10:41:00,
2013-03-03 05:46:00,20.8,18.3,29.87,NW,315,6.5,15.4,90,0.00,,,0.00,WUHU21623XXSP,2013-03-03 10:46:00,
2013-03-03 05:51:00,20.8,18.3,29.87,North,0,6.9,15.4,90,0.00,,,0.00,WUHU21623XXSP,2013-03-03 10:51:00,
2013-03-03 05:56:00,20.8,18.3,29.87,NNW,337,3.4,12.3,90,0.00,,,0.00,WUHU21623XXSP,2013-03-03 10:56:00,
2013-03-03 06:01:00,20.8,18.3,29.87,NW,315,8.9,10.7,90,0.00,,,0.00,WUHU21623XXSP,2013-03-03 11:01:00,
2013-03-03 06:07:00,20.8,18.3,29.87,NW,315,6.0,10.7,90,0.00,,,0.00,WUHU21623XXSP,2013-03-03 11:07:00,
2013-03-03 06:12:00,20.7,18.1,29.88,NW,315,6.3,10.7,90,0.00,,,0.00,WUHU21623XXSP,2013-03-03 11:12:00,
2013-03-03 06:17:00,20.5,18.2,29.88,NW,315,9.4,11.2,91,0.00,,,0.00,WUHU21623XXSP,2013-03-03 11:17:00,
2013-03-03 06:22:00,20.5,18.0,29.88,NNW,337,6.9,11.4,90,0.00,,,0.00,WUHU21623XXSP,2013-03-03 11:22:00,
2013-03-03 06:27:00,20.5,18.0,29.88,NW,315,5.1,11.4,90,0.00,,,0.00,WUHU21623XXSP,2013-03-03 11:27:00,
2013-03-03 06:32:00,20.3,17.8,29.88,NW,315,8.9,11.4,90,0.00,,,0.00,WUHU21623XXSP,2013-03-03 11:32:00,
2013-03-03 06:37:00,20.3,17.5,29.88,NNW,337,9.8,12.5,89,0.00,,,0.00,WUHU21623XXSP,2013-03-03 11:37:00,
2013-03-03 06:42:00,20.3,17.5,29.88,NW,315,7.2,12.5,89,0.00,,,0.00,WUHU21623XXSP,2013-03-03 11:42:00,
2013-03-03 06:47:00,20.3,17.2,29.87,NW,315,9.4,10.7,88,0.00,,,0.00,WUHU21623XXSP,2013-03-03 11:47:00,
2013-03-03 06:52:00,20.5,17.4,29.88,NW,315,4.3,10.7,88,0.00,,,0.00,WUHU21623XXSP,2013-03-03 11:52:00,
2013-03-03 06:57:00,20.5,17.4,29.87,NW,315,7.4,10.5,88,0.00,,,0.00,WUHU21623XXSP,2013-03-03 11:57:00,
2013-03-03 07:02:00,20.5,17.1,29.88,NNW,337,3.4,10.1,87,0.00,,,0.00,WUHU21623XXSP,2013-03-03 12:02:00,
2013-03-03 07:07:00,20.5,17.1,29.88,NNW,337,9.2,10.7,87,0.00,,,0.00,WUHU21623XXSP,2013-03-03 12:07:00,
2013-03-03 07:12:00,20.5,17.1,29.88,NNW,337,7.4,10.7,87,0.00,,,0.00,WUHU21623XXSP,2013-03-03 12:12:00,
2013-03-03 07:17:00,20.5,17.1,29.88,NNW,337,5.6,11.6,87,0.00,,,0.00,WUHU21623XXSP,2013-03-03 12:17:00,
2013-03-03 07:22:00,20.5,17.1,29.88,NNW,337,4.5,11.6,87,0.00,,,0.00,WUHU21623XXSP,2013-03-03 12:22:00,
2013-03-03 07:27:00,20.5,17.1,29.88,NNW,337,6.0,11.2,87,0.00,,,0.00,WUHU21623XXSP,2013-03-03 12:27:00,
2013-03-03 07:32:00,20.5,17.1,29.88,NW,315,5.4,8.3,87,0.00,,,0.00,WUHU21623XXSP,2013-03-03 12:32:00,
2013-03-03 07:37:00,20.5,17.1,29.89,NW,315,8.1,13.6,87,0.00,,,0.00,WUHU21623XXSP,2013-03-03 12:37:00,
2013-03-03 07:42:00,20.5,16.9,29.88,NNW,337,11.0,13.9,86,0.00,,,0.00,WUHU21623XXSP,2013-03-03 12:42:00,
2013-03-03 07:47:00,20.5,16.9,29.89,NW,315,8.3,13.9,86,0.00,,,0.00,WUHU21623XXSP,2013-03-03 12:47:00,
2013-03-03 07:52:00,20.5,16.9,29.89,NNW,337,8.5,13.2,86,0.00,,,0.00,WUHU21623XXSP,2013-03-03 12:52:00,
2013-03-03 07:57:00,20.5,16.9,29.89,NNW,337,6.7,13.2,86,0.00,,,0.00,WUHU21623XXSP,2013-03-03 12:57:00,
2013-03-03 08:02:00,20.5,16.6,29.89,NW,315,6.7,15.2,85,0.00,,,0.00,WUHU21623XXSP,2013-03-03 13:02:00,
2013-03-03 08:07:00,20.5,16.3,29.89,NW,315,8.5,15.2,84,0.00,,,0.00,WUHU21623XXSP,2013-03-03 13:07:00,
2013-03-03 08:12:00,20.5,16.3,29.89,NW,315,7.2,13.4,84,0.00,,,0.00,WUHU21623XXSP,2013-03-03 13:12:00,
2013-03-03 08:17:00,20.5,16.1,29.89,NNW,337,8.7,13.2,83,0.00,,,0.00,WUHU21623XXSP,2013-03-03 13:17:00,
2013-03-03 08:22:00,20.5,16.1,29.89,NW,315,6.0,13.2,82,0.00,,,0.00,WUHU21623XXSP,2013-03-03 13:22:00,
2013-03-03 08:27:00,20.5,15.8,29.89,NW,315,10.5,11.6,82,0.00,,,0.00,WUHU21623XXSP,2013-03-03 13:27:00,
2013-03-03 08:32:00,20.5,15.8,29.89,NW,315,7.4,14.5,82,0.00,,,0.00,WUHU21623XXSP,2013-03-03 13:32:00,
2013-03-03 08:37:00,20.8,16.2,29.89,NNW,337,12.8,14.5,82,0.00,,,0.00,WUHU21623XXSP,2013-03-03 13:37:00,
2013-03-03 08:42:00,20.8,16.2,29.89,North,0,8.7,13.0,82,0.00,,,0.00,WUHU21623XXSP,2013-03-03 13:42:00,
2013-03-03 08:47:00,21.0,16.1,29.89,NNW,337,6.7,13.0,81,0.00,,,0.00,WUHU21623XXSP,2013-03-03 13:47:00,
2013-03-03 08:52:00,21.0,16.1,29.89,NW,315,9.6,13.9,81,0.00,,,0.00,WUHU21623XXSP,2013-03-03 13:52:00,
2013-03-03 08:57:00,21.0,16.1,29.89,NNW,337,4.5,13.9,81,0.00,,,0.00,WUHU21623XXSP,2013-03-03 13:57:00,
2013-03-03 09:02:00,21.0,16.1,29.89,NNW,337,8.7,12.8,81,0.00,,,0.00,WUHU21623XXSP,2013-03-03 14:02:00,
2013-03-03 09:07:00,21.0,16.1,29.89,NNW,337,9.6,15.0,81,0.00,,,0.00,WUHU21623XXSP,2013-03-03 14:07:00,
2013-03-03 09:13:00,21.0,16.1,29.89,NNW,337,6.3,15.0,81,0.00,,,0.00,WUHU21623XXSP,2013-03-03 14:13:00,
2013-03-03 09:18:00,21.0,15.8,29.89,NNW,337,10.5,13.0,80,0.00,,,0.00,WUHU21623XXSP,2013-03-03 14:18:00,
2013-03-03 09:23:00,20.8,15.6,29.89,NNW,337,12.8,16.1,80,0.00,,,0.00,WUHU21623XXSP,2013-03-03 14:23:00,
2013-03-03 09:28:00,20.8,15.6,29.89,NNW,337,4.7,16.1,80,0.00,,,0.00,WUHU21623XXSP,2013-03-03 14:28:00,
2013-03-03 09:33:00,20.8,15.6,29.89,NNW,337,6.0,13.9,80,0.00,,,0.00,WUHU21623XXSP,2013-03-03 14:33:00,
2013-03-03 09:38:00,20.5,15.3,29.89,North,0,8.5,14.1,80,0.00,,,0.00,WUHU21623XXSP,2013-03-03 14:38:00,
2013-03-03 09:43:00,20.7,15.4,29.89,NNW,337,6.0,14.1,80,0.00,,,0.00,WUHU21623XXSP,2013-03-03 14:43:00,
2013-03-03 09:48:00,20.5,15.3,29.89,NW,315,8.3,11.9,80,0.00,,,0.00,WUHU21623XXSP,2013-03-03 14:48:00,
2013-03-03 09:53:00,20.8,15.6,29.89,WNW,292,8.9,11.9,80,0.00,,,0.00,WUHU21623XXSP,2013-03-03 14:53:00,
2013-03-03 09:58:00,20.8,15.9,29.89,NNW,337,13.6,13.6,81,0.00,,,0.00,WUHU21623XXSP,2013-03-03 14:58:00,
2013-03-03 10:03:00,20.8,15.9,29.89,NNW,337,5.1,14.8,81,0.00,,,0.00,WUHU21623XXSP,2013-03-03 15:03:00,
2013-03-03 10:08:00,20.8,15.9,29.89,NNW,337,3.4,14.8,81,0.00,,,0.00,WUHU21623XXSP,2013-03-03 15:08:00,
2013-03-03 10:13:00,21.0,16.1,29.89,NW,315,10.3,13.0,81,0.00,,,0.00,WUHU21623XXSP,2013-03-03 15:13:00,
2013-03-03 10:18:00,21.0,16.1,29.89,NW,315,11.2,13.2,81,0.00,,,0.00,WUHU21623XXSP,2013-03-03 15:18:00,
2013-03-03 10:23:00,21.4,16.7,29.89,NW,315,14.1,14.1,82,0.00,,,0.00,WUHU21623XXSP,2013-03-03 15:23:00,
2013-03-03 10:28:00,21.0,16.3,29.89,WNW,292,11.9,16.3,82,0.00,,,0.00,WUHU21623XXSP,2013-03-03 15:28:00,
2013-03-03 10:33:00,21.4,16.7,29.89,WNW,292,14.1,16.3,82,0.00,,,0.00,WUHU21623XXSP,2013-03-03 15:33:00,
2013-03-03 10:38:00,21.7,16.8,29.88,NW,315,13.2,15.9,81,0.00,,,0.00,WUHU21623XXSP,2013-03-03 15:38:00,
2013-03-03 10:43:00,21.9,17.0,29.88,NW,315,8.1,15.9,81,0.00,,,0.00,WUHU21623XXSP,2013-03-03 15:43:00,
2013-03-03 10:48:00,22.3,17.1,29.88,NW,315,3.4,15.9,80,0.00,,,0.00,WUHU21623XXSP,2013-03-03 15:48:00,
2013-03-03 10:53:00,22.3,17.1,29.88,NW,315,6.7,12.3,80,0.00,,,0.00,WUHU21623XXSP,2013-03-03 15:53:00,
2013-03-03 10:58:00,21.9,16.7,29.88,NW,315,12.5,14.3,80,0.00,,,0.00,WUHU21623XXSP,2013-03-03 15:58:00,
2013-03-03 11:03:00,21.9,16.7,29.88,NW,315,7.4,17.0,80,0.00,,,0.00,WUHU21623XXSP,2013-03-03 16:03:00,
2013-03-03 11:08:00,21.7,16.8,29.88,NW,315,12.1,17.0,81,0.00,,,0.00,WUHU21623XXSP,2013-03-03 16:08:00,
2013-03-03 11:13:00,21.6,16.6,29.88,NW,315,11.4,17.9,81,0.00,,,0.00,WUHU21623XXSP,2013-03-03 16:13:00,
2013-03-03 11:18:00,21.7,16.8,29.88,West,270,1.3,17.9,81,0.00,,,0.00,WUHU21623XXSP,2013-03-03 16:18:00,
2013-03-03 11:23:00,21.9,16.7,29.88,NW,315,6.0,17.4,80,0.00,,,0.00,WUHU21623XXSP,2013-03-03 16:23:00,
2013-03-03 11:28:00,21.9,16.7,29.88,NW,315,16.6,16.6,80,0.00,,,0.00,WUHU21623XXSP,2013-03-03 16:28:00,
2013-03-03 11:33:00,21.9,16.4,29.88,NW,315,15.4,19.5,79,0.00,,,0.00,WUHU21623XXSP,2013-03-03 16:33:00,
2013-03-03 11:38:00,22.1,16.6,29.88,WNW,292,10.7,19.5,79,0.00,,,0.00,WUHU21623XXSP,2013-03-03 16:38:00,
2013-03-03 11:43:00,22.3,16.8,29.88,WNW,292,9.8,17.4,79,0.00,,,0.00,WUHU21623XXSP,2013-03-03 16:43:00,
2013-03-03 11:48:00,22.3,16.8,29.88,West,270,10.1,17.4,79,0.00,,,0.00,WUHU21623XXSP,2013-03-03 16:48:00,
2013-03-03 11:53:00,22.8,17.0,29.88,West,270,7.4,13.2,78,0.00,,,0.00,WUHU21623XXSP,2013-03-03 16:53:00,
2013-03-03 11:58:00,22.8,16.7,29.88,NNW,337,10.5,14.8,77,0.00,,,0.00,WUHU21623XXSP,2013-03-03 16:58:00,
2013-03-03 12:03:00,22.6,16.5,29.88,WNW,292,7.6,16.6,77,0.00,,,0.00,WUHU21623XXSP,2013-03-03 17:03:00,
2013-03-03 12:08:00,22.8,16.7,29.88,NW,315,7.2,16.6,77,0.00,,,0.00,WUHU21623XXSP,2013-03-03 17:08:00,
2013-03-03 12:13:00,22.6,16.5,29.88,NW,315,11.0,17.0,77,0.00,,,0.00,WUHU21623XXSP,2013-03-03 17:13:00,
2013-03-03 12:18:00,22.6,16.5,29.88,NW,315,15.2,17.0,77,0.00,,,0.00,WUHU21623XXSP,2013-03-03 17:18:00,
2013-03-03 12:24:00,22.8,16.7,29.88,NW,315,9.4,15.2,77,0.00,,,0.00,WUHU21623XXSP,2013-03-03 17:24:00,
2013-03-03 12:29:00,23.5,17.4,29.88,NW,315,13.9,16.8,77,0.00,,,0.00,WUHU21623XXSP,2013-03-03 17:29:00,
2013-03-03 12:34:00,23.5,17.4,29.88,WNW,292,7.6,16.8,77,0.00,,,0.00,WUHU21623XXSP,2013-03-03 17:34:00,
2013-03-03 12:39:00,23.7,17.2,29.87,West,270,9.6,15.2,76,0.00,,,0.00,WUHU21623XXSP,2013-03-03 17:39:00,
2013-03-03 12:44:00,23.5,17.1,29.87,NW,315,12.8,14.5,76,0.00,,,0.00,WUHU21623XXSP,2013-03-03 17:44:00,
2013-03-03 12:49:00,23.7,17.2,29.87,NNW,337,12.3,15.2,76,0.00,,,0.00,WUHU21623XXSP,2013-03-03 17:49:00,
2013-03-03 12:54:00,23.7,16.9,29.86,WNW,292,8.5,18.6,76,0.00,,,0.00,WUHU21623XXSP,2013-03-03 17:54:00,
2013-03-03 12:59:00,24.1,17.3,29.86,NW,315,15.4,18.6,75,0.00,,,0.00,WUHU21623XXSP,2013-03-03 17:59:00,
2013-03-03 13:04:00,23.7,17.2,29.86,NNW,337,12.3,17.4,76,0.00,,,0.00,WUHU21623XXSP,2013-03-03 18:04:00,
2013-03-03 13:09:00,23.9,17.1,29.86,NW,315,8.9,17.4,75,0.00,,,0.00,WUHU21623XXSP,2013-03-03 18:09:00,
2013-03-03 13:14:00,24.1,17.3,29.86,WNW,292,6.5,17.2,75,0.00,,,0.00,WUHU21623XXSP,2013-03-03 18:14:00,
2013-03-03 13:19:00,23.9,17.1,29.86,WNW,292,13.6,13.6,75,0.00,,,0.00,WUHU21623XXSP,2013-03-03 18:19:00,
2013-03-03 13:24:00,23.9,17.1,29.86,WNW,292,10.7,15.0,75,0.00,,,0.00,WUHU21623XXSP,2013-03-03 18:24:00,
2013-03-03 13:29:00,23.7,17.2,29.86,West,270,12.1,15.0,76,0.00,,,0.00,WUHU21623XXSP,2013-03-03 18:29:00,
2013-03-03 13:34:00,23.5,17.1,29.85,NW,315,7.8,13.2,76,0.00,,,0.00,WUHU21623XXSP,2013-03-03 18:34:00,
2013-03-03 13:39:00,23.5,17.4,29.85,NW,315,8.7,15.4,77,0.00,,,0.00,WUHU21623XXSP,2013-03-03 18:39:00,
2013-03-03 13:44:00,23.5,17.4,29.86,NW,315,8.7,15.4,77,0.00,,,0.00,WUHU21623XXSP,2013-03-03 18:44:00,
2013-03-03 13:49:00,23.7,17.9,29.85,WNW,292,7.8,14.3,78,0.00,,,0.00,WUHU21623XXSP,2013-03-03 18:49:00,
2013-03-03 13:54:00,24.1,17.9,29.85,NW,315,6.3,14.3,77,0.00,,,0.00,WUHU21623XXSP,2013-03-03 18:54:00,
2013-03-03 13:59:00,23.9,17.7,29.85,WNW,292,11.0,16.1,77,0.00,,,0.00,WUHU21623XXSP,2013-03-03 18:59:00,
2013-03-03 14:04:00,23.7,17.9,29.86,WNW,292,12.8,19.2,78,0.00,,,0.00,WUHU21623XXSP,2013-03-03 19:04:00,
2013-03-03 14:09:00,23.5,18.0,29.86,NW,315,12.3,19.2,79,0.00,,,0.00,WUHU21623XXSP,2013-03-03 19:09:00,
2013-03-03 14:14:00,23.5,18.0,29.86,WNW,292,7.6,15.0,79,0.00,,,0.00,WUHU21623XXSP,2013-03-03 19:14:00,
2013-03-03 14:19:00,23.9,18.4,29.86,WNW,292,7.6,15.4,79,0.00,,,0.00,WUHU21623XXSP,2013-03-03 19:19:00,
2013-03-03 14:24:00,24.1,18.2,29.86,WNW,292,6.3,15.4,78,0.00,,,0.00,WUHU21623XXSP,2013-03-03 19:24:00,
2013-03-03 14:29:00,24.6,18.4,29.86,NW,315,7.4,14.8,77,0.00,,,0.00,WUHU21623XXSP,2013-03-03 19:29:00,
2013-03-03 14:34:00,25.2,18.6,29.86,NW,315,15.2,15.2,76,0.00,,,0.00,WUHU21623XXSP,2013-03-03 19:34:00,
2013-03-03 14:39:00,25.0,18.4,29.86,WNW,292,11.4,15.2,76,0.00,,,0.00,WUHU21623XXSP,2013-03-03 19:39:00,
2013-03-03 14:44:00,25.2,18.3,29.86,WNW,292,11.2,13.9,75,0.00,,,0.00,WUHU21623XXSP,2013-03-03 19:44:00,
2013-03-03 14:49:00,25.2,18.3,29.86,WNW,292,4.7,17.9,75,0.00,,,0.00,WUHU21623XXSP,2013-03-03 19:49:00,
2013-03-03 14:54:00,25.0,18.1,29.86,WNW,292,6.9,17.9,75,0.00,,,0.00,WUHU21623XXSP,2013-03-03 19:54:00,
2013-03-03 14:59:00,24.6,17.8,29.86,NW,315,8.1,15.0,75,0.00,,,0.00,WUHU21623XXSP,2013-03-03 19:59:00,
2013-03-03 15:04:00,25.0,18.4,29.86,West,270,4.3,11.0,76,0.00,,,0.00,WUHU21623XXSP,2013-03-03 20:04:00,
2013-03-03 15:09:00,25.2,18.3,29.86,WNW,292,6.3,15.2,75,0.00,,,0.00,WUHU21623XXSP,2013-03-03 20:09:00,
2013-03-03 15:14:00,25.3,18.5,29.86,NW,315,9.6,15.2,75,0.00,,,0.00,WUHU21623XXSP,2013-03-03 20:14:00,
2013-03-03 15:19:00,25.2,18.3,29.86,WNW,292,11.0,14.1,75,0.00,,,0.00,WUHU21623XXSP,2013-03-03 20:19:00,
2013-03-03 15:24:00,25.2,18.0,29.86,WNW,292,8.3,13.2,74,0.00,,,0.00,WUHU21623XXSP,2013-03-03 20:24:00,
2013-03-03 15:29:00,25.2,18.3,29.86,West,270,6.9,12.8,75,0.00,,,0.00,WUHU21623XXSP,2013-03-03 20:29:00,
2013-03-03 15:34:00,25.2,18.3,29.86,NW,315,9.8,11.0,75,0.00,,,0.00,WUHU21623XXSP,2013-03-03 20:34:00,
2013-03-03 15:39:00,25.3,18.5,29.86,NW,315,9.6,12.3,75,0.00,,,0.00,WUHU21623XXSP,2013-03-03 20:39:00,
2013-03-03 15:44:00,25.3,18.5,29.86,West,270,11.2,12.3,75,0.00,,,0.00,WUHU21623XXSP,2013-03-03 20:44:00,
2013-03-03 15:49:00,25.3,18.5,29.86,WNW,292,5.1,11.4,75,0.00,,,0.00,WUHU21623XXSP,2013-03-03 20:49:00,
2013-03-03 15:54:00,25.2,18.3,29.86,West,270,11.9,11.9,75,0.00,,,0.00,WUHU21623XXSP,2013-03-03 20:54:00,
2013-03-03 15:59:00,25.5,18.9,29.86,NW,315,3.4,11.9,76,0.00,,,0.00,WUHU21623XXSP,2013-03-03 20:59:00,
2013-03-03 16:04:00,25.5,19.3,29.86,WNW,292,11.6,11.6,77,0.00,,,0.00,WUHU21623XXSP,2013-03-03 21:04:00,
2013-03-03 16:09:00,25.3,19.4,29.86,WNW,292,6.9,12.5,78,0.00,,,0.00,WUHU21623XXSP,2013-03-03 21:09:00,
2013-03-03 16:14:00,25.2,19.3,29.86,WNW,292,8.5,12.5,78,0.00,,,0.00,WUHU21623XXSP,2013-03-03 21:14:00,
2013-03-03 16:19:00,25.2,19.6,29.86,WNW,292,4.0,11.0,79,0.00,,,0.00,WUHU21623XXSP,2013-03-03 21:19:00,
2013-03-03 16:25:00,25.2,19.6,29.86,WNW,292,2.7,11.4,79,0.00,,,0.00,WUHU21623XXSP,2013-03-03 21:25:00,
2013-03-03 16:30:00,25.0,19.4,29.86,West,270,4.3,14.1,79,0.00,,,0.00,WUHU21623XXSP,2013-03-03 21:30:00,
2013-03-03 16:35:00,25.0,19.4,29.86,West,270,3.6,14.1,79,0.00,,,0.00,WUHU21623XXSP,2013-03-03 21:35:00,
2013-03-03 16:40:00,25.0,19.4,29.86,WNW,292,8.3,13.6,79,0.00,,,0.00,WUHU21623XXSP,2013-03-03 21:40:00,
2013-03-03 16:45:00,25.0,19.7,29.86,West,270,2.9,12.1,80,0.00,,,0.00,WUHU21623XXSP,2013-03-03 21:45:00,
2013-03-03 16:50:00,25.2,19.9,29.86,West,270,0.0,10.3,80,0.00,,,0.00,WUHU21623XXSP,2013-03-03 21:50:00,
2013-03-03 16:55:00,25.2,19.9,29.86,WNW,292,8.9,11.0,80,0.00,,,0.00,WUHU21623XXSP,2013-03-03 21:55:00,
2013-03-03 17:00:00,25.0,19.7,29.86,WNW,292,8.9,12.3,80,0.00,,,0.00,WUHU21623XXSP,2013-03-03 22:00:00,
2013-03-03 17:05:00,25.0,19.4,29.87,NW,315,3.4,12.3,79,0.00,,,0.00,WUHU21623XXSP,2013-03-03 22:05:00,
2013-03-03 17:10:00,25.0,19.4,29.87,WNW,292,3.4,10.3,79,0.00,,,0.00,WUHU21623XXSP,2013-03-03 22:10:00,
2013-03-03 17:15:00,24.6,19.1,29.87,West,270,4.5,11.9,79,0.00,,,0.00,WUHU21623XXSP,2013-03-03 22:15:00,
2013-03-03 17:20:00,24.6,19.1,29.87,West,270,4.0,11.9,79,0.00,,,0.00,WUHU21623XXSP,2013-03-03 22:20:00,
2013-03-03 17:25:00,24.6,19.1,29.87,WNW,292,3.6,9.8,79,0.00,,,0.00,WUHU21623XXSP,2013-03-03 22:25:00,
2013-03-03 17:30:00,24.6,19.1,29.87,WNW,292,5.1,9.8,79,0.00,,,0.00,WUHU21623XXSP,2013-03-03 22:30:00,
2013-03-03 17:35:00,24.6,19.4,29.87,WNW,292,9.8,9.8,80,0.00,,,0.00,WUHU21623XXSP,2013-03-03 22:35:00,
2013-03-03 17:40:00,24.4,19.2,29.87,NW,315,11.4,11.4,80,0.00,,,0.00,WUHU21623XXSP,2013-03-03 22:40:00,
2013-03-03 17:45:00,24.4,19.2,29.87,West,270,4.5,11.4,80,0.00,,,0.00,WUHU21623XXSP,2013-03-03 22:45:00,
2013-03-03 17:50:00,24.4,19.5,29.87,WSW,247,3.1,11.0,81,0.00,,,0.00,WUHU21623XXSP,2013-03-03 22:50:00,
2013-03-03 17:55:00,24.3,19.3,29.87,West,270,5.4,9.4,81,0.00,,,0.00,WUHU21623XXSP,2013-03-03 22:55:00,
2013-03-03 18:00:00,24.1,19.4,29.88,West,270,3.4,9.2,82,0.00,,,0.00,WUHU21623XXSP,2013-03-03 23:00:00,
2013-03-03 18:05:00,24.1,19.4,29.88,West,270,7.2,9.2,82,0.00,,,0.00,WUHU21623XXSP,2013-03-03 23:05:00,
2013-03-03 18:10:00,24.1,19.4,29.88,WNW,292,4.9,7.8,82,0.00,,,0.00,WUHU21623XXSP,2013-03-03 23:10:00,
2013-03-03 18:15:00,24.1,19.7,29.88,West,270,4.3,10.7,83,0.00,,,0.00,WUHU21623XXSP,2013-03-03 23:15:00,
2013-03-03 18:20:00,24.1,19.7,29.88,West,270,5.4,12.3,83,0.00,,,0.00,WUHU21623XXSP,2013-03-03 23:20:00,
2013-03-03 18:25:00,24.1,19.9,29.88,West,270,3.1,12.3,84,0.00,,,0.00,WUHU21623XXSP,2013-03-03 23:25:00,
2013-03-03 18:30:00,23.9,19.8,29.88,WNW,292,4.5,9.8,84,0.00,,,0.00,WUHU21623XXSP,2013-03-03 23:30:00,
2013-03-03 18:35:00,23.9,19.8,29.88,West,270,2.9,7.6,84,0.00,,,0.00,WUHU21623XXSP,2013-03-03 23:35:00,
2013-03-03 18:40:00,23.9,20.0,29.88,West,270,0.0,5.8,85,0.00,,,0.00,WUHU21623XXSP,2013-03-03 23:40:00,
2013-03-03 18:45:00,23.9,20.0,29.88,West,270,2.2,7.8,85,0.00,,,0.00,WUHU21623XXSP,2013-03-03 23:45:00,
2013-03-03 18:50:00,23.9,20.0,29.88,West,270,5.4,7.8,85,0.00,,,0.00,WUHU21623XXSP,2013-03-03 23:50:00,
2013-03-03 18:56:00,23.9,20.0,29.88,West,270,0.0,6.0,85,0.00,,,0.00,WUHU21623XXSP,2013-03-03 23:56:00,
2013-03-03 19:01:00,24.1,20.2,29.89,WNW,292,0.0,6.0,85,0.00,,,0.00,WUHU21623XXSP,2013-03-04 00:01:00,
2013-03-03 19:06:00,23.9,20.0,29.89,West,270,2.2,3.6,85,0.00,,,0.00,WUHU21623XXSP,2013-03-04 00:06:00,
2013-03-03 19:11:00,23.9,20.0,29.89,WNW,292,3.1,5.8,85,0.00,,,0.00,WUHU21623XXSP,2013-03-04 00:11:00,
2013-03-03 19:16:00,23.9,20.0,29.89,WNW,292,5.4,5.8,85,0.00,,,0.00,WUHU21623XXSP,2013-03-04 00:16:00,
2013-03-03 19:21:00,24.1,20.5,29.89,WNW,292,3.1,5.8,86,0.00,,,0.00,WUHU21623XXSP,2013-03-04 00:21:00,
2013-03-03 19:26:00,24.1,20.5,29.89,WNW,292,2.9,5.6,86,0.00,,,0.00,WUHU21623XXSP,2013-03-04 00:26:00,
2013-03-03 19:31:00,24.1,20.5,29.89,NW,315,0.9,8.5,86,0.00,,,0.00,WUHU21623XXSP,2013-03-04 00:31:00,
2013-03-03 19:36:00,24.3,20.7,29.89,WNW,292,8.1,11.0,86,0.00,,,0.00,WUHU21623XXSP,2013-03-04 00:36:00,
2013-03-03 19:41:00,24.4,20.8,29.89,WNW,292,4.5,11.0,86,0.00,,,0.00,WUHU21623XXSP,2013-03-04 00:41:00,
2013-03-03 19:46:00,24.4,20.8,29.89,NW,315,5.6,11.0,86,0.00,,,0.00,WUHU21623XXSP,2013-03-04 00:46:00,
2013-03-03 19:51:00,24.4,20.8,29.90,NW,315,9.2,17.0,86,0.00,,,0.00,WUHU21623XXSP,2013-03-04 00:51:00,
2013-03-03 19:56:00,24.4,20.8,29.90,WNW,292,7.4,17.0,86,0.00,,,0.00,WUHU21623XXSP,2013-03-04 00:56:00,
2013-03-03 20:01:00,24.4,20.6,29.90,WNW,292,11.9,17.7,85,0.00,,,0.00,WUHU21623XXSP,2013-03-04 01:01:00,
2013-03-03 20:06:00,24.4,20.3,29.90,WNW,292,12.8,17.7,84,0.00,,,0.00,WUHU21623XXSP,2013-03-04 01:06:00,
2013-03-03 20:11:00,24.3,20.1,29.91,NW,315,11.9,14.3,84,0.00,,,0.00,WUHU21623XXSP,2013-03-04 01:11:00,
2013-03-03 20:16:00,24.1,19.9,29.91,WNW,292,6.7,14.3,84,0.00,,,0.00,WUHU21623XXSP,2013-03-04 01:16:00,
2013-03-03 20:21:00,23.9,19.8,29.91,NW,315,17.4,17.4,84,0.00,,,0.00,WUHU21623XXSP,2013-03-04 01:21:00,
2013-03-03 20:26:00,23.9,19.8,29.91,WNW,292,5.4,17.7,84,0.00,,,0.00,WUHU21623XXSP,2013-03-04 01:26:00,
2013-03-03 20:31:00,23.9,19.8,29.91,NW,315,10.7,17.7,84,0.00,,,0.00,WUHU21623XXSP,2013-03-04 01:31:00,
2013-03-03 20:36:00,23.7,19.6,29.91,WNW,292,7.8,13.4,84,0.00,,,0.00,WUHU21623XXSP,2013-03-04 01:36:00,
2013-03-03 20:41:00,23.7,19.6,29.91,WNW,292,4.5,13.4,84,0.00,,,0.00,WUHU21623XXSP,2013-03-04 01:41:00,
2013-03-03 20:46:00,23.5,19.1,29.91,WNW,292,5.8,13.4,83,0.00,,,0.00,WUHU21623XXSP,2013-03-04 01:46:00,
2013-03-03 20:51:00,23.5,19.1,29.91,WNW,292,5.1,13.2,83,0.00,,,0.00,WUHU21623XXSP,2013-03-04 01:51:00,
2013-03-03 20:56:00,23.5,19.4,29.91,WNW,292,6.0,15.7,84,0.00,,,0.00,WUHU21623XXSP,2013-03-04 01:56:00,
2013-03-03 21:01:00,23.5,19.4,29.91,WNW,292,5.1,15.7,84,0.00,,,0.00,WUHU21623XXSP,2013-03-04 02:01:00,
2013-03-03 21:06:00,23.5,19.4,29.91,WNW,292,5.1,14.8,84,0.00,,,0.00,WUHU21623XXSP,2013-03-04 02:06:00,
2013-03-03 21:11:00,23.5,19.4,29.91,WNW,292,6.7,14.8,84,0.00,,,0.00,WUHU21623XXSP,2013-03-04 02:11:00,
2013-03-03 21:16:00,23.4,19.2,29.91,NW,315,11.0,12.5,84,0.00,,,0.00,WUHU21623XXSP,2013-03-04 02:16:00,
2013-03-03 21:21:00,23.4,18.9,29.91,NW,315,10.1,12.5,83,0.00,,,0.00,WUHU21623XXSP,2013-03-04 02:21:00,
2013-03-03 21:26:00,23.2,18.8,29.91,NW,315,15.4,15.4,83,0.00,,,0.00,WUHU21623XXSP,2013-03-04 02:26:00,
2013-03-03 21:31:00,23.2,18.8,29.91,WNW,292,12.3,16.1,83,0.00,,,0.00,WUHU21623XXSP,2013-03-04 02:31:00,
2013-03-03 21:36:00,23.2,18.8,29.91,WNW,292,7.2,16.1,83,0.00,,,0.00,WUHU21623XXSP,2013-03-04 02:36:00,
2013-03-03 21:41:00,23.2,18.8,29.91,WNW,292,6.9,11.2,83,0.00,,,0.00,WUHU21623XXSP,2013-03-04 02:41:00,
2013-03-03 21:46:00,23.2,18.8,29.91,NW,315,8.1,10.7,83,0.00,,,0.00,WUHU21623XXSP,2013-03-04 02:46:00,
2013-03-03 21:51:00,23.2,18.8,29.91,West,270,2.9,10.7,83,0.00,,,0.00,WUHU21623XXSP,2013-03-04 02:51:00,
2013-03-03 21:56:00,23.2,18.8,29.91,WNW,292,3.8,9.2,83,0.00,,,0.00,WUHU21623XXSP,2013-03-04 02:56:00,
2013-03-03 22:01:00,23.2,19.0,29.91,WNW,292,10.5,10.5,84,0.00,,,0.00,WUHU21623XXSP,2013-03-04 03:01:00,
2013-03-03 22:06:00,23.2,18.8,29.91,NW,315,8.7,11.2,83,0.00,,,0.00,WUHU21623XXSP,2013-03-04 03:06:00,
2013-03-03 22:11:00,23.0,18.6,29.91,WNW,292,5.6,11.2,83,0.00,,,0.00,WUHU21623XXSP,2013-03-04 03:11:00,
2013-03-03 22:16:00,23.0,18.9,29.91,NW,315,7.6,14.5,84,0.00,,,0.00,WUHU21623XXSP,2013-03-04 03:16:00,
2013-03-03 22:21:00,22.8,18.7,29.91,NW,315,7.4,14.5,84,0.00,,,0.00,WUHU21623XXSP,2013-03-04 03:21:00,
2013-03-03 22:26:00,22.8,18.7,29.91,WNW,292,8.7,13.4,84,0.00,,,0.00,WUHU21623XXSP,2013-03-04 03:26:00,
2013-03-03 22:31:00,22.6,18.8,29.91,NW,315,8.3,11.9,85,0.00,,,0.00,WUHU21623XXSP,2013-03-04 03:31:00,
2013-03-03 22:36:00,22.6,18.8,29.91,WNW,292,9.2,15.0,85,0.00,,,0.00,WUHU21623XXSP,2013-03-04 03:36:00,
2013-03-03 22:41:00,22.6,18.8,29.91,NW,315,7.6,15.0,85,0.00,,,0.00,WUHU21623XXSP,2013-03-04 03:41:00,
2013-03-03 22:46:00,22.5,18.6,29.91,NW,315,4.7,13.0,85,0.00,,,0.00,WUHU21623XXSP,2013-03-04 03:46:00,
2013-03-03 22:51:00,22.5,18.6,29.91,WNW,292,7.4,13.0,85,0.00,,,0.00,WUHU21623XXSP,2013-03-04 03:51:00,
2013-03-03 22:56:00,22.3,18.4,29.91,WNW,292,6.3,11.9,85,0.00,,,0.00,WUHU21623XXSP,2013-03-04 03:56:00,
2013-03-03 23:02:00,22.3,18.7,29.91,WNW,292,6.7,11.9,86,0.00,,,0.00,WUHU21623XXSP,2013-03-04 04:02:00,
2013-03-03 23:07:00,22.1,18.5,29.91,NW,315,5.8,11.4,86,0.00,,,0.00,WUHU21623XXSP,2013-03-04 04:07:00,
2013-03-03 23:12:00,22.1,18.5,29.91,West,270,5.1,9.2,86,0.00,,,0.00,WUHU21623XXSP,2013-03-04 04:12:00,
2013-03-03 23:17:00,22.1,18.8,29.91,West,270,4.3,10.1,87,0.00,,,0.00,WUHU21623XXSP,2013-03-04 04:17:00,
2013-03-03 23:22:00,21.9,18.6,29.91,West,270,13.0,13.0,87,0.00,,,0.00,WUHU21623XXSP,2013-03-04 04:22:00,
2013-03-03 23:27:00,21.9,18.9,29.91,West,270,6.0,13.0,88,0.00,,,0.00,WUHU21623XXSP,2013-03-04 04:27:00,
2013-03-03 23:32:00,21.7,18.7,29.91,WNW,292,5.8,10.5,88,0.00,,,0.00,WUHU21623XXSP,2013-03-04 04:32:00,
2013-03-03 23:37:00,21.7,18.7,29.91,West,270,0.0,8.9,88,0.00,,,0.00,WUHU21623XXSP,2013-03-04 04:37:00,
2013-03-03 23:42:00,21.7,18.7,29.91,West,270,5.8,8.7,88,0.00,,,0.00,WUHU21623XXSP,2013-03-04 04:42:00,
2013-03-03 23:47:00,21.6,18.5,29.91,WSW,247,6.0,11.4,88,0.00,,,0.00,WUHU21623XXSP,2013-03-04 04:47:00,
2013-03-03 23:52:00,21.4,18.3,29.91,West,270,3.8,11.4,88,0.00,,,0.00,WUHU21623XXSP,2013-03-04 04:52:00,
2013-03-03 23:57:00,21.4,18.3,29.91,West,270,2.2,10.5,88,0.00,,,0.00,WUHU21623XXSP,2013-03-04 04:57:00,